Location: *
(49.7115°N, 15.0136°E)
Time: 02:30:12
(UTC+00:00)

SJ-11-01 - Pass Details

Date: 27 February 2020
Orbit: 685 x 700 km, 98.0° (Epoch: 05 April)

Event Time Altitude Azimuth Distance (km) Brightness Sun altitude
Rises 17:57:31 0° 158° (SSE) 3,044 7.4 -13.6°
Reaches altitude 10° 17:59:45 10° 156° (SSE) 2,131 6.5 -13.9°
Maximum altitude 18:04:24 72° 73° (ENE) 726 4.2 -14.7°
Drops below altitude 10° 18:09:04 10° 350° (N) 2,145 7.0 -15.4°
Sets 18:11:19 0° 348° (NNW) 3,065 7.9 -15.8°
